Location: S�tio Afonso Gruber
(26.1760°S, 49.5250°W)
Time: 10:08:01
(UTC+00:00)

O/OREOS (USA 219) - Visible Passes

Search period start: 26 November 2022 00:00
Search period end: 06 December 2022 00:00
Orbit: 621 x 646 km, 72.0° (Epoch: 22 May)

Date Brightness Start Highest point End Pass type
(mag) Time Alt. Az. Time Alt. Az. Time Alt. Az.
26 Nov ? 23:03:00 10° WNW 23:05:56 17° WSW 23:08:53 10° SSW visible
27 Nov ? 07:41:11 10° SSE 07:44:17 18° ESE 07:47:21 10° ENE visible
29 Nov ? 22:30:13 10° W 22:32:47 15° WSW 22:35:22 10° SSW visible
30 Nov ? 07:07:45 10° SSE 07:11:08 20° ESE 07:14:28 10° ENE visible
01 Dec ? 07:28:52 10° S 07:33:19 51° ESE 07:37:41 10° NNE visible
02 Dec ? 07:50:50 10° SSW 07:55:19 58° WNW 07:59:44 10° N visible
03 Dec ? 06:34:22 10° SSE 06:37:58 23° ESE 06:41:31 10° ENE visible
04 Dec ? 06:55:37 10° S 07:00:08 58° ESE 07:04:33 10° NNE visible
05 Dec ? 05:41:58 10° SE 05:42:28 10° ESE 05:42:59 10° ESE visible
05 Dec ? 07:17:42 10° SSW 07:22:07 50° WNW 07:26:26 10° N visible
